Tracking 18942 objects as of 18-Jan-2018
HD Live streaming from Space Station
objects crossing your sky now

FENGYUN 1C DEB

Track FENGYUN 1C DEB now!
10-day predictions


NORAD ID: 38165
Int'l Code: 1999-025ERN
Perigee: 790.7 km
Apogee: 834.0 km
Inclination: 99.1 °
Period: 101.0 minutes
Semi major axis: 7183 km
RCS: 0.006 m2 (small)
Launch date: May 10, 1999
Source: People's Republic of China (PRC)
Launch site: Taiyaun Space Center, China (TSC)

Note: This is SATELLITE DEBRIS
aabbcc
Your satellite tracking list
Your tracking list is empty




NASA's NSSDC Master Catalog

Two Line Element Set (TLE):
1 38165U 99025ERN 18010.21774670 +.00000796 +00000-0 +35182-3 0  9996
2 38165 099.0702 154.1617 0030153 007.5757 352.5871 14.25972822468551
Source of the keplerian elements: AFSPC